2023/04/27 00:00:00,20.0, 7.9
2023/04/27 00:10:00,20.2, 8.1
2023/04/27 00:20:00,21.8, 8.5
2023/04/27 00:30:00,23.1, 8.1
2023/04/27 00:40:00,21.9, 8.5
2023/04/27 00:50:00,22.4, 8.6
2023/04/27 01:00:00,22.4, 8.5
2023/04/27 01:10:00,23.2, 8.2
2023/04/27 01:20:00,24.8, 8.1
2023/04/27 01:30:00,25.1, 8.1
2023/04/27 01:40:00,26.8, 8.0
2023/04/27 01:50:00,24.8, 7.9
2023/04/27 02:00:00,24.3, 8.1
2023/04/27 02:10:00,25.1, 8.1
2023/04/27 02:20:00,22.5, 8.6
2023/04/27 02:30:00,20.3, 7.9
2023/04/27 02:40:00,16.5, 8.1
2023/04/27 02:50:00,16.8, 7.8
2023/04/27 03:00:00,16.6, 7.7
2023/04/27 03:10:00,19.2, 7.2
2023/04/27 03:20:00,21.1, 7.4
2023/04/27 03:30:00,20.5, 7.4
2023/04/27 03:40:00,19.0, 7.4
2023/04/27 03:50:00,16.7, 7.2
2023/04/27 04:00:00,18.9, 7.6
2023/04/27 04:10:00,15.8, 7.2
2023/04/27 04:20:00,14.4, 7.2
2023/04/27 04:30:00,14.4, 7.0
2023/04/27 04:40:00,12.1, 6.6
2023/04/27 04:50:00, 9.3, 6.7
2023/04/27 05:00:00, 9.1, 7.0
2023/04/27 05:10:00, 9.8, 7.2
2023/04/27 05:20:00, 8.9, 7.1
2023/04/27 05:30:00, 8.5, 7.1
2023/04/27 05:40:00,11.4, 7.3
2023/04/27 05:50:00,14.2, 7.4
2023/04/27 06:00:00,15.4, 7.5
2023/04/27 06:10:00,17.6, 7.8
2023/04/27 06:20:00,17.9, 7.6
2023/04/27 06:30:00,18.1, 7.8
2023/04/27 06:40:00,18.6, 7.6
2023/04/27 06:50:00,18.6, 8.0
2023/04/27 07:00:00,18.8, 7.9
2023/04/27 07:10:00,18.8, 8.7
2023/04/27 07:20:00,19.1, 9.1
2023/04/27 07:30:00,20.3, 9.8
2023/04/27 07:40:00,27.5,11.5
2023/04/27 07:50:00,26.5,12.8
2023/04/27 08:00:00,24.4,13.4
2023/04/27 08:10:00,22.4,14.9
2023/04/27 08:20:00,25.6,15.8
2023/04/27 08:30:00,26.0,16.9
2023/04/27 08:40:00,26.6,16.7
2023/04/27 08:50:00,27.2,18.4
2023/04/27 09:00:00,27.9,17.6
2023/04/27 09:10:00,27.5,19.0
2023/04/27 09:20:00,24.1,22.4
2023/04/27 09:30:00,19.4,20.0
2023/04/27 09:40:00,20.3,22.2
2023/04/27 09:50:00, 5.7,20.3
2023/04/27 10:00:00, 7.1,21.4
2023/04/27 10:10:00, 9.6,17.3
2023/04/27 10:20:00,14.7,19.6
2023/04/27 10:30:00,11.6,22.3
2023/04/27 10:40:00, 3.6,20.8
2023/04/27 10:50:00,13.8,19.4
2023/04/27 11:00:00, 8.0,19.9
2023/04/27 11:10:00,17.3,17.8
2023/04/27 11:20:00,11.5,20.4
2023/04/27 11:30:00, 4.4,21.8
2023/04/27 11:40:00, 4.6,21.2
2023/04/27 11:50:00, 3.1,21.0
2023/04/27 12:00:00, 1.0,21.0
2023/04/27 12:10:00, 0.8,22.2
2023/04/27 12:20:00, 0.9,21.7
2023/04/27 12:30:00, 1.0,21.6
2023/04/27 12:40:00, 1.7,21.9
2023/04/27 12:50:00, 2.3,21.6
2023/04/27 13:00:00,19.9,22.2
2023/04/27 13:10:00,37.9,20.9
2023/04/27 13:20:00,19.8,20.8
2023/04/27 13:30:00, 6.1,20.2
2023/04/27 13:40:00,12.4,20.4
2023/04/27 13:50:00,31.8,20.6
2023/04/27 14:00:00,28.1,20.1
2023/04/27 14:10:00,29.4,20.4
2023/04/27 14:20:00,28.5,20.4
2023/04/27 14:30:00,30.5,20.8
2023/04/27 14:40:00,25.4,21.4
2023/04/27 14:50:00,33.7,21.5
2023/04/27 15:00:00,32.0,21.2
2023/04/27 15:10:00,32.0,21.3
2023/04/27 15:20:00,32.3,21.1
2023/04/27 15:30:00, 0.0,19.3
2023/04/27 15:40:00,19.4,19.5
2023/04/27 15:50:00,32.3,20.4
2023/04/27 16:00:00,23.4,20.8
2023/04/27 16:10:00,13.7,21.4
2023/04/27 16:20:00, 7.6,19.1
2023/04/27 16:30:00,10.4,17.9
2023/04/27 16:40:00,10.4,18.4
2023/04/27 16:50:00, 4.4,18.6
2023/04/27 17:00:00,11.3,20.8
2023/04/27 17:10:00,21.8,21.4
2023/04/27 17:20:00,---,20.4
2023/04/27 17:30:00,---,19.8
2023/04/27 17:40:00,39.9,19.8
2023/04/27 17:50:00,39.9,19.2
2023/04/27 18:00:00,39.7,18.5
2023/04/27 18:10:00,39.8,17.3
2023/04/27 18:20:00,39.9,15.4
2023/04/27 18:30:00,39.7,14.1
2023/04/27 18:40:00,40.1,12.7
2023/04/27 18:50:00,40.0,11.9
2023/04/27 19:00:00,39.8,11.3
2023/04/27 19:10:00,39.4,10.7
2023/04/27 19:20:00,39.1,10.6
2023/04/27 19:30:00,39.3,10.1
2023/04/27 19:40:00,39.0, 9.8
2023/04/27 19:50:00,33.5, 9.9
2023/04/27 20:00:00,25.4, 9.6
2023/04/27 20:10:00,37.5, 9.2
2023/04/27 20:20:00,38.2, 9.1
2023/04/27 20:30:00,37.8, 8.7
2023/04/27 20:40:00,37.7, 9.2
2023/04/27 20:50:00,37.8, 9.3
2023/04/27 21:00:00,37.6, 9.3
2023/04/27 21:10:00,37.4, 9.6
2023/04/27 21:20:00,30.5, 9.4
2023/04/27 21:30:00,35.9, 9.3
2023/04/27 21:40:00,37.0, 9.5
2023/04/27 21:50:00,37.0, 9.4
2023/04/27 22:00:00,35.9, 9.3
2023/04/27 22:10:00,36.3, 9.4
2023/04/27 22:20:00,32.4, 9.5
2023/04/27 22:30:00,30.4, 9.6
2023/04/27 22:40:00,27.5, 9.3
2023/04/27 22:50:00,29.0, 9.7
2023/04/27 23:00:00,30.5, 9.8
2023/04/27 23:10:00,26.6, 9.6
2023/04/27 23:20:00,25.0, 9.2
2023/04/27 23:30:00,26.8, 9.7
2023/04/27 23:40:00,30.7,10.1
2023/04/27 23:50:00,32.5,10.5
